Location: �perlecques
(50.8057°N, 2.1521°E)
Time: 13:12:30
(UTC+00:00)

VELOX 1 - Pass Details

Date: 26 September 2021
Orbit: 626 x 643 km, 98.3° (Epoch: 16 October)

Event Time Altitude Azimuth Distance (km) Brightness Sun altitude
Exits shadow 03:05:28 44° 145° (SE) 873 ? -24.7°
Maximum altitude 03:06:47 74° 72° (ENE) 661 ? -24.5°
Drops below altitude 10° 03:11:09 10° 349° (NNW) 2,018 ? -23.9°
Sets 03:13:22 0° 347° (NNW) 2,929 ? -23.6°
